Dewpoint
51 51 51 51 51 51 52 52 52 52 53 53 52 52 53 53 53 53 53 53 52 53 53 52 52 52 52 53 52 52 53 48 46 42 42 38 42 57 55 54 55 55 57 35 29 28 26 26 24 20 15 15 17 19 25 25 22 17 14 12 7 2 1 -2 -1 -3 7 5 8 10 9 8 12 41 50 55 54 54 55 57 57 58 58 61 59 64 64 66
50 51 51 50 51 51 51 51 51 52 52 52 52 53 53 53 53 53 53 53 53 52 52 52 51 52 52 52 52 53 50 47 44 42 40 48 54 56 58 58 59 58 57 27 24 21 20 20 20 17 14 11 21 9 26 20 24 13 10 9 4 3 1 6 2 6 5 8 10 10 10 8 5 13 44 44 46 51 51 54 55 57 60 62 62 63 65 66
50 50 50 51 51 51 52 51 51 51 51 52 52 53 53 53 53 52 52 53 54 53 52 52 52 52 52 51 52 54 49 44 43 40 40 55 56 57 60 61 58 58 46 22 20 18 17 18 19 14 11 10 14 15 20 22 21 14 13 11 8 6 8 8 9 9 9 11 11 10 9 8 4 13 34 39 38 44 39 45 51 52 57 60 62 62 65 66
50 50 50 50 51 51 51 51 50 51 51 52 52 52 53 52 52 53 52 52 53 53 52 53 53 52 51 51 53 50 47 44 35 34 47 58 57 57 58 62 59 53 39 23 21 17 17 16 18 14 8 7 14 18 14 22 16 14 15 8 2 7 7 4 7 9 11 12 12 10 10 7 5 7 24 26 31 34 34 32 32 39 56 60 61 62 64 65
50 50 50 50 50 51 50 50 50 51 52 52 52 52 53 52 52 53 53 53 52 52 52 52 52 51 51 52 53 49 46 36 29 42 57 59 58 57 59 61 60 39 33 25 22 18 18 18 15 14 12 8 15 17 14 20 14 20 12 5 9 14 7 7 9 11 12 13 10 10 8 6 7 8 13 20 26 20 25 28 34 41 54 59 62 62 63 64
50 50 51 50 50 50 51 52 52 52 52 51 52 52 52 52 52 53 53 52 52 51 51 52 51 51 52 53 50 48 42 9 30 39 64 61 59 58 62 61 59 36 30 24 19 17 19 18 15 15 11 6 15 12 11 16 18 14 14 11 17 14 9 10 11 10 11 9 9 8 8 8 6 6 9 9 16 15 34 45 48 48 53 58 62 62 63 63
50 50 50 50 51 50 51 52 51 51 51 51 51 51 51 52 52 52 52 52 51 51 51 52 51 51 52 53 49 45 39 19 27 44 64 61 59 59 61 59 54 33 27 22 18 17 17 16 14 10 8 10 12 10 13 17 18 11 7 12 12 12 11 11 9 10 10 9 9 9 8 7 6 4 7 6 6 20 42 43 46 48 55 60 62 63 63 63
50 50 51 50 50 50 50 50 51 50 50 50 51 51 51 52 52 52 52 52 52 51 51 51 52 51 53 47 45 40 28 4 36 56 63 60 55 58 56 38 32 27 23 20 17 16 16 14 12 12 9 7 12 10 16 16 15 11 9 13 13 13 12 11 9 9 9 9 8 9 8 6 6 5 8 6 11 43 44 49 48 49 57 60 63 61 63 64
50 50 50 51 50 50 50 50 51 52 51 51 51 51 51 51 51 51 51 52 52 52 51 52 51 51 52 49 41 22 -2 39 47 52 58 53 45 50 41 35 32 24 22 20 17 15 15 14 11 15 7 8 13 9 19 12 12 12 9 10 12 11 10 9 8 7 7 6 8 8 7 6 6 7 5 4 36 49 52 51 50 54 58 59 60 63 63 63
50 50 50 50 50 50 51 50 50 52 52 52 51 51 51 51 51 51 51 51 52 51 51 52 52 51 48 44 38 23 26 43 48 54 54 49 45 47 39 30 31 26 25 23 21 16 13 14 14 14 19 10 14 9 14 9 6 11 9 10 11 8 7 7 7 7 7 8 9 7 5 4 5 7 3 7 46 49 48 52 54 56 58 59 59 62 63 62
50 50 50 50 50 50 50 50 50 51 52 52 52 51 51 51 51 51 51 51 51 50 51 51 53 52 47 41 30 15 31 41 42 48 52 52 47 39 32 32 30 28 26 23 21 16 14 17 23 16 18 11 10 11 12 9 8 7 8 8 7 6 6 7 8 8 8 5 8 6 4 5 6 7 2 35 51 48 45 51 54 55 58 58 58 60 62 63
50 50 50 50 50 50 50 50 50 51 51 51 51 51 51 51 50 51 50 50 50 50 51 51 52 49 45 41 31 23 38 38 41 46 49 46 37 30 29 31 30 28 26 22 20 15 18 24 25 18 13 16 8 12 8 9 8 9 8 5 5 5 4 5 4 4 8 4 6 7 3 2 4 2 6 38 50 51 48 51 54 55 57 58 57 59 61 61
50 50 50 50 50 50 50 50 50 50 51 51 51 51 51 50 50 50 50 51 51 50 51 52 52 47 46 38 33 32 30 35 38 41 46 43 36 33 33 34 30 29 26 20 17 18 19 26 26 20 18 13 11 6 10 11 9 10 8 4 3 4 2 3 3 5 6 4 5 4 4 1 0 1 17 48 46 50 51 51 53 55 57 57 58 60 60 63
49 50 49 50 50 50 50 50 50 50 50 50 51 51 51 50 50 49 50 50 51 51 52 52 49 44 47 34 29 31 34 37 39 39 40 39 33 31 32 33 31 30 29 26 20 19 20 27 27 23 21 18 11 13 11 10 10 5 4 5 4 1 -0 0 4 4 3 5 4 3 7 -1 -3 1 32 47 47 46 46 50 53 55 56 56 58 59 61 63
49 49 49 50 50 50 50 50 50 50 50 50 51 51 51 51 51 50 50 50 51 51 51 52 49 48 46 36 35 48 52 43 39 36 36 33 28 26 30 32 29 28 27 22 19 19 18 25 24 19 15 17 16 10 7 7 8 5 5 3 -1 2 -1 4 5 6 2 7 5 3 9 -0 -1 15 41 49 48 46 44 52 54 55 56 56 57 60 61 63
49 49 50 50 50 50 50 50 50 50 50 50 50 51 51 51 51 51 50 50 51 51 50 49 46 45 40 34 35 49 42 34 32 35 36 31 26 16 25 29 28 26 26 19 23 20 18 19 20 18 13 12 11 8 6 5 7 6 4 14 4 -0 -4 2 9 10 10 11 8 4 1 -1 -1 13 40 48 50 48 46 52 55 55 56 56 59 60 61 60
49 49 49 49 49 50 50 50 50 50 50 50 50 50 51 51 49 49 52 51 51 51 48 43 45 47 43 30 32 29 27 31 36 36 37 34 28 21 23 24 24 24 24 20 21 21 22 22 21 19 14 10 10 8 7 8 11 8 3 7 9 2 -2 2 12 13 15 11 8 10 5 5 17 22 42 48 48 47 45 51 54 55 56 56 58 60 60 60
49 49 49 49 49 49 50 50 50 50 50 50 49 51 50 52 52 51 51 52 50 48 47 48 46 44 35 34 25 24 25 26 29 36 37 34 24 19 18 17 20 19 19 17 19 19 21 20 14 15 16 18 15 10 9 6 13 10 11 11 11 8 11 3 10 14 13 13 13 13 13 8 7 28 43 47 49 47 48 50 54 54 55 55 57 58 59 60
48 49 49 49 49 49 49 49 49 49 49 50 49 51 51 52 51 49 48 47 46 47 44 45 43 31 20 21 23 23 24 28 31 32 32 28 21 18 17 18 16 17 19 20 19 20 18 21 21 17 14 13 10 6 5 5 5 6 7 6 8 8 6 9 12 14 15 17 13 12 12 10 12 22 42 49 50 49 50 53 54 54 54 55 55 56 58 59
48 48 49 49 49 49 49 49 49 49 50 48 47 50 51 50 49 48 47 47 44 33 28 29 37 31 29 27 24 27 31 29 27 28 32 23 20 19 19 18 18 19 21 23 21 23 19 17 18 17 12 15 19 17 19 13 14 12 10 11 9 7 8 9 12 17 20 19 16 13 14 10 9 24 45 51 52 52 52 52 53 53 54 53 54 56 57 59
48 48 49 49 49 49 49 49 49 50 49 47 47 45 28 30 29 30 36 36 41 39 35 33 31 31 30 30 30 27 25 27 26 27 30 24 20 18 17 19 20 23 20 18 25 30 21 19 16 16 17 19 24 26 23 23 20 12 11 10 6 8 10 11 14 19 23 29 16 18 14 14 16 36 45 48 51 49 51 52 53 52 52 53 54 56 58 59
48 48 48 48 49 49 49 49 49 50 49 48 45 42 25 30 37 37 36 30 32 35 37 35 34 33 34 34 32 32 30 28 26 27 29 26 19 15 18 16 18 17 21 22 24 22 20 15 18 20 26 26 27 26 24 22 21 19 14 11 11 7 9 17 21 25 26 28 19 15 13 14 32 37 46 47 48 48 50 51 52 52 51 52 53 55 58 59
48 48 49 48 48 49 49 49 50 48 49 45 43 38 29 37 37 36 36 34 34 35 34 34 33 34 34 36 35 35 31 26 23 27 28 28 19 16 17 15 17 16 20 22 20 22 21 15 19 19 25 25 27 27 25 25 25 18 16 18 11 10 9 12 27 25 26 27 23 13 12 31 38 44 46 51 51 53 54 50 53 53 52 53 54 54 57 59
48 48 48 48 48 48 49 49 50 48 48 43 34 28 28 33 28 29 39 37 29 26 31 30 33 33 32 33 35 34 29 26 26 25 29 26 17 14 16 13 15 16 14 15 16 14 11 21 26 25 24 23 26 27 25 19 15 22 24 15 9 13 9 13 22 27 31 28 31 13 20 23 32 33 41 49 52 53 51 52 52 53 52 54 55 55 56 57
48 48 48 48 48 48 48 49 48 47 44 43 38 34 34 35 34 36 42 37 32 31 35 34 35 33 32 36 35 31 29 28 26 25 28 24 16 16 14 13 13 13 10 11 12 11 9 26 28 20 20 19 24 22 22 22 12 17 26 24 19 19 19 16 23 22 23 21 27 24 11 12 23 29 31 46 49 49 49 51 51 53 53 53 53 55 56 59
47 47 48 47 47 48 49 47 46 39 31 25 25 35 34 28 32 44 41 30 22 22 29 29 35 30 34 29 33 27 27 23 25 26 27 25 24 13 16 14 13 10 9 12 9 13 14 35 25 22 23 21 19 17 19 23 16 21 20 22 23 17 21 22 20 20 17 23 26 30 18 12 18 23 37 42 44 47 49 50 51 51 52 52 52 54 54 56
47 47 47 47 47 48 41 35 42 37 26 17 34 34 28 28 48 47 35 25 18 23 26 30 33 33 33 31 29 27 16 17 24 27 27 26 21 18 14 11 14 15 15 21 19 12 15 20 20 24 26 22 19 16 24 21 18 14 30 17 17 17 20 24 21 17 15 24 27 26 17 19 14 21 32 35 38 42 48 49 51 50 53 53 54 55 56 54
48 48 47 47 47 47 45 45 39 28 14 28 30 28 26 41 50 49 34 12 10 26 27 26 25 30 31 29 29 20 23 24 20 25 26 23 22 19 14 11 10 10 18 19 10 27 23 26 25 24 23 17 14 14 22 21 18 20 30 18 17 15 22 21 17 17 20 19 14 17 17 14 14 24 28 27 27 32 36 42 46 48 50 53 55 55 53 55
48 47 47 47 47 47 47 45 43 30 26 34 31 26 31 50 48 36 22 12 23 16 22 27 27 27 27 29 27 23 23 22 17 24 25 24 21 18 13 14 13 10 13 16 10 24 23 21 18 19 17 15 15 16 21 22 18 29 26 21 22 22 23 22 17 14 20 18 14 18 22 14 9 20 18 25 21 27 32 36 39 43 47 50 52 54 54 54
48 47 47 47 47 47 47 47 44 37 34 35 32 31 44 49 41 23 17 11 25 18 20 24 22 23 26 23 22 24 24 21 20 23 23 22 20 19 19 19 14 15 14 14 14 15 23 28 30 21 17 17 22 26 24 19 23 25 23 16 17 17 22 21 19 16 21 13 15 21 26 17 9 21 16 19 25 33 32 33 36 38 39 38 41 47 53 52
48 47 47 47 44 42 41 37 38 37 38 39 38 41 47 42 30 17 16 10 15 20 21 22 19 20 22 20 17 22 24 20 20 23 22 23 20 18 19 19 18 18 18 18 18 13 14 20 19 17 23 19 20 20 24 23 22 23 19 15 15 18 20 20 21 19 15 13 21 21 25 26 10 15 18 29 33 38 39 40 43 44 43 45 46 39 45 51
48 47 47 47 45 45 36 24 31 35 41 44 40 37 37 25 25 20 17 10 7 17 18 19 17 13 13 19 18 16 20 22 19 21 21 20 23 20 20 20 22 17 14 16 15 16 17 14 13 19 26 18 19 17 20 20 23 21 18 15 16 15 15 12 14 14 10 10 22 21 22 20 15 18 28 29 35 40 45 44 47 47 47 49 47 46 48 50
47 47 48 47 47 46 44 41 41 45 47 42 33 31 30 22 21 19 15 8 10 23 19 18 16 13 11 14 17 17 17 19 19 20 21 21 20 21 19 18 18 20 15 20 17 17 14 13 14 14 20 21 17 15 18 19 19 16 15 17 13 9 14 13 9 12 11 20 23 22 26 17 18 20 30 35 41 45 47 48 49 49 50 50 48 49 49 50
47 48 48 48 46 45 46 51 48 46 43 42 28 31 27 19 18 24 14 10 8 23 19 15 12 10 11 12 15 17 15 16 18 18 19 22 20 25 20 19 19 19 23 24 13 16 11 12 16 16 17 17 16 15 17 19 17 14 12 10 14 12 13 12 7 9 12 10 25 25 21 15 15 16 30 41 45 46 47 47 50 51 50 51 49 48 49 50
47 49 51 51 49 47 48 46 50 50 47 33 24 26 24 22 19 20 18 11 7 12 13 12 9 9 12 12 14 16 16 17 18 17 17 19 21 21 22 19 20 18 19 18 23 23 10 12 12 15 20 18 14 16 16 14 14 15 15 12 13 14 16 10 20 16 16 15 19 23 17 21 21 32 33 40 44 46 47 48 50 50 50 50 50 49 49 51
46 48 49 46 42 46 46 45 50 49 42 25 19 20 20 24 16 11 10 12 14 11 5 8 6 7 11 10 16 16 18 19 16 17 17 16 19 19 19 19 19 18 22 19 24 16 13 14 18 18 18 18 14 16 16 15 18 18 13 15 13 17 14 19 25 33 25 16 12 20 21 21 24 23 31 38 41 45 46 46 48 49 50 51 49 48 50 52
44 47 45 42 38 40 46 47 46 46 39 23 17 16 21 20 12 14 19 13 14 11 8 -0 5 6 11 11 15 15 16 18 19 15 18 17 20 18 18 19 19 18 17 20 22 19 15 11 17 15 14 15 15 15 14 13 14 15 14 12 17 17 20 20 10 17 13 10 15 21 19 16 16 13 29 35 39 41 45 46 47 49 49 49 48 49 49 51
46 45 46 37 39 44 47 47 47 41 24 20 18 22 20 17 19 11 18 16 13 13 8 4 13 4 9 12 13 13 18 16 21 16 17 17 23 20 18 18 18 18 18 18 19 25 19 15 15 15 14 14 14 14 13 13 14 11 11 15 12 14 12 19 15 14 13 12 10 16 15 14 13 21 25 33 36 42 45 46 46 45 46 46 48 50 51 52
47 43 40 38 40 45 47 48 45 32 19 14 18 18 21 19 20 15 18 19 16 15 8 7 8 9 12 12 13 13 17 20 19 17 16 23 18 26 23 21 19 18 18 18 20 25 26 18 16 16 14 13 14 13 14 14 13 13 14 13 14 19 18 15 16 14 15 11 15 17 14 12 14 17 23 25 33 44 44 45 45 45 46 46 49 49 48 50
42 37 35 42 41 45 47 47 41 28 16 10 15 17 19 17 18 20 24 18 15 13 14 14 8 12 8 12 12 14 16 16 21 22 17 27 17 22 22 21 20 21 20 19 17 23 23 30 17 15 14 13 13 16 13 13 16 15 14 14 15 23 24 20 25 14 13 12 10 12 13 13 24 33 24 25 34 43 45 46 46 46 47 47 48 50 50 49
43 35 34 42 42 45 47 43 32 24 16 15 17 13 19 14 16 19 22 26 18 19 18 17 18 14 17 14 10 13 15 16 19 22 22 21 20 22 25 24 20 18 19 19 18 25 21 21 17 17 14 14 13 15 15 14 13 14 15 17 12 15 14 12 12 19 19 13 14 11 11 17 34 38 38 36 42 42 44 46 47 46 47 48 49 50 50 50
34 27 31 40 47 46 45 31 28 30 21 15 17 13 16 31 17 17 20 25 21 17 18 16 16 14 14 10 9 11 14 14 13 18 20 26 22 23 25 33 24 22 21 25 24 36 37 28 21 18 16 14 15 16 17 16 16 16 18 14 12 17 15 12 10 15 19 15 18 14 13 18 36 38 38 39 38 41 46 45 46 47 49 49 48 49 51 53
33 32 37 39 47 44 40 27 31 26 24 18 20 16 20 23 14 19 17 19 15 18 19 16 15 16 12 10 13 9 11 17 15 15 16 19 22 22 25 27 36 28 25 25 25 32 42 27 18 16 14 14 16 14 17 15 15 13 19 23 18 19 19 17 13 18 15 20 15 10 14 19 37 39 41 41 41 42 47 46 46 48 49 48 48 49 50 51
34 33 33 37 44 44 37 24 21 18 19 26 22 22 18 22 20 15 11 20 19 20 18 19 18 13 23 21 18 9 19 19 17 15 18 20 22 23 23 26 32 31 28 29 26 37 28 30 28 19 17 14 15 13 13 15 15 19 20 26 26 21 22 29 24 22 15 20 13 12 12 19 39 41 41 40 39 42 45 47 47 48 49 48 47 48 50 52
35 38 36 36 40 38 32 32 33 25 25 28 25 23 20 19 24 25 23 22 22 23 26 24 26 25 20 23 23 21 21 20 28 22 24 20 23 22 24 28 29 32 29 29 39 32 28 32 25 20 18 15 15 13 13 13 15 23 26 24 24 19 25 21 14 15 14 21 16 15 13 34 39 42 42 43 43 44 45 46 48 48 49 47 48 51 52 52
30 26 32 33 38 37 35 36 35 32 27 30 28 28 25 23 24 24 23 22 21 21 22 22 22 25 24 23 24 21 20 24 23 27 18 19 19 19 22 28 33 33 38 44 37 35 33 33 32 30 26 19 18 21 21 24 18 15 20 23 24 24 27 29 23 15 14 23 20 21 27 33 35 36 40 43 44 44 44 46 47 48 49 48 49 49 48 48
32 31 31 29 36 33 34 32 32 35 29 34 26 30 28 27 23 22 23 27 21 21 21 22 21 27 30 25 30 27 25 22 22 25 26 24 20 20 20 22 29 40 44 38 34 31 32 30 31 31 28 25 20 20 20 20 20 17 18 21 19 23 27 26 18 18 24 19 13 29 28 30 34 35 38 41 41 42 44 45 46 48 48 47 48 47 48 46
27 32 34 36 32 30 31 31 32 34 32 29 31 30 24 24 26 28 23 21 21 24 27 22 19 20 23 31 31 29 28 28 29 28 24 24 20 22 18 19 21 32 35 26 31 33 29 26 29 29 24 23 23 21 22 20 21 23 24 27 28 25 28 27 26 26 33 18 21 27 28 29 32 34 36 38 39 42 43 44 46 47 47 47 49 47 46 45
32 32 32 37 31 33 34 36 37 36 34 31 30 31 29 25 23 21 24 26 22 25 22 24 23 18 20 23 29 29 32 25 26 30 31 30 31 30 23 19 19 20 25 28 26 37 29 27 29 26 24 22 21 22 21 20 24 24 27 26 28 28 28 27 28 28 26 31 29 33 37 37 35 34 35 37 40 41 42 43 46 46 47 47 47 47 45 44
31 33 27 33 33 31 33 36 37 37 33 34 27 32 26 28 26 21 20 24 26 25 23 25 18 19 20 22 26 27 29 31 31 28 31 34 29 31 28 27 23 22 21 30 28 37 29 26 31 27 22 23 24 22 20 20 23 24 26 27 30 32 30 31 30 31 29 30 32 29 32 32 33 36 36 39 41 40 43 42 43 45 46 47 46 46 46 45
38 39 39 30 25 27 29 31 33 34 30 31 30 32 32 28 28 22 20 19 23 26 24 25 23 24 21 22 24 24 23 27 29 28 28 28 26 25 28 28 20 28 23 28 32 33 33 27 30 28 24 25 25 26 25 24 25 26 27 28 27 27 26 27 28 33 31 28 32 30 24 27 32 34 36 37 38 38 40 42 42 42 43 46 45 45 45 45
41 38 40 36 22 27 25 27 28 29 27 31 32 31 31 29 27 27 23 20 19 20 25 27 28 27 23 25 24 25 25 25 26 24 22 20 21 20 19 19 19 25 27 27 32 27 28 29 27 26 24 24 27 27 27 27 27 25 25 28 32 30 31 30 30 32 34 36 28 23 20 33 33 34 33 33 34 35 35 36 40 39 39 40 41 42 43 43